When you browse on this site, cookies collect data to enhance your experience and personalize the content and advertising you see.
Visit our Privacy Policy to learn more. By continuing to use the site, you agree to this use of cookies and data.
  • în România
  • Lista ţărilor
  • Pe 7 zile
  • Temperatura apei
  • Meteo pe hartă
  • Widget-uri
  • user-avatar
    Intrare

    Meteo pe oră la Førde

    Astăzi, 3 Iunie, Miercuri

    Timp Temperatura Precipitaţii Vânt Presiune Umiditate
    00:00 +9°C° 0 mm 1 m/s 708 mmHg 85%
    01:00 +9°C° 0 mm 1 m/s 707 mmHg 85%
    02:00 +9°C° 0 mm 1 m/s 706 mmHg 86%
    03:00 +9°C° 0 mm 1 m/s 706 mmHg 86%
    04:00 +10°C° 0 mm 1 m/s 706 mmHg 83%
    05:00 +11°C° 0 mm 1 m/s 706 mmHg 79%
    06:00 +12°C° 0 mm 2 m/s 706 mmHg 74%
    07:00 +13°C° 0 mm 2 m/s 706 mmHg 70%
    08:00 +14°C° 0 mm 2 m/s 705 mmHg 67%
    09:00 +15°C° 0 mm 2 m/s 705 mmHg 63%
    10:00 +15°C° 0.2 mm 2 m/s 705 mmHg 62%
    11:00 +15°C° 0.2 mm 2 m/s 705 mmHg 62%
    12:00 +14°C° 0.2 mm 3 m/s 704 mmHg 61%
    13:00 +14°C° 0.8 mm 3 m/s 704 mmHg 65%
    14:00 +13°C° 0.8 mm 3 m/s 703 mmHg 68%
    15:00 +13°C° 0.8 mm 3 m/s 703 mmHg 71%
    16:00 +12°C° 0.6 mm 3 m/s 703 mmHg 74%
    17:00 +12°C° 0.6 mm 3 m/s 702 mmHg 77%
    18:00 +11°C° 0.6 mm 3 m/s 702 mmHg 80%
    19:00 +10°C° 0.2 mm 2 m/s 702 mmHg 82%
    20:00 +10°C° 0.2 mm 2 m/s 701 mmHg 85%
    21:00 +9°C° 0.2 mm 2 m/s 701 mmHg 88%
    22:00 +9°C° 0.6 mm 2 m/s 701 mmHg 89%
    23:00 +10°C° 0.6 mm 1 m/s 700 mmHg 91%

    Mâine, 4 Iunie, Joi

    Timp Temperatura Precipitaţii Vânt Presiune Umiditate
    00:00 +9°C° 0.6 mm 1 m/s 700 mmHg 93%
    01:00 +9°C° 1 mm 1 m/s 699 mmHg 94%
    02:00 +9°C° 1 mm 1 m/s 699 mmHg 94%
    03:00 +9°C° 1 mm 1 m/s 698 mmHg 95%
    04:00 +9°C° 0.4 mm 1 m/s 698 mmHg 94%
    05:00 +9°C° 0.4 mm 1 m/s 698 mmHg 93%
    06:00 +9°C° 0.4 mm 1 m/s 698 mmHg 92%
    07:00 +9°C° 0.6 mm 1 m/s 698 mmHg 91%
    08:00 +9°C° 0.6 mm 1 m/s 698 mmHg 91%
    09:00 +9°C° 0.6 mm 1 m/s 697 mmHg 90%
    10:00 +9°C° 0.5 mm 1 m/s 697 mmHg 91%
    11:00 +9°C° 0.5 mm 1 m/s 697 mmHg 91%
    12:00 +9°C° 0.5 mm 1 m/s 697 mmHg 91%
    13:00 +9°C° 0.8 mm 1 m/s 697 mmHg 90%
    14:00 +9°C° 0.8 mm 1 m/s 697 mmHg 90%
    15:00 +9°C° 0.8 mm 1 m/s 697 mmHg 89%
    16:00 +9°C° 0.9 mm 1 m/s 697 mmHg 91%
    17:00 +8°C° 0.9 mm 1 m/s 697 mmHg 92%
    18:00 +8°C° 0.9 mm 1 m/s 696 mmHg 94%
    19:00 +8°C° 0.5 mm 1 m/s 696 mmHg 94%
    20:00 +8°C° 0.5 mm 1 m/s 696 mmHg 94%
    21:00 +8°C° 0.5 mm 1 m/s 696 mmHg 94%
    22:00 +6°C° 0 mm 2 m/s 696 mmHg 93%
    23:00 +6°C° 0 mm 2 m/s 695 mmHg 92%

    Poimâine, 5 Iunie, Vineri

    Timp Temperatura Precipitaţii Vânt Presiune Umiditate
    00:00 +6°C° 0 mm 2 m/s 695 mmHg 91%
    01:00 +6°C° 0 mm 2 m/s 694 mmHg 90%
    02:00 +6°C° 0 mm 2 m/s 694 mmHg 88%
    03:00 +6°C° 0 mm 2 m/s 693 mmHg 86%
    04:00 +7°C° 0 mm 2 m/s 693 mmHg 83%
    05:00 +8°C° 0 mm 2 m/s 693 mmHg 80%
    06:00 +9°C° 0 mm 3 m/s 692 mmHg 77%
    07:00 +10°C° 0 mm 3 m/s 692 mmHg 70%
    08:00 +11°C° 0 mm 4 m/s 692 mmHg 64%
    09:00 +12°C° 0 mm 4 m/s 692 mmHg 57%
    10:00 +12°C° 0 mm 5 m/s 691 mmHg 55%
    11:00 +13°C° 0 mm 5 m/s 691 mmHg 53%
    12:00 +13°C° 0 mm 5 m/s 691 mmHg 50%
    13:00 +13°C° 0 mm 5 m/s 691 mmHg 50%
    14:00 +13°C° 0 mm 4 m/s 691 mmHg 50%
    15:00 +13°C° 0 mm 4 m/s 691 mmHg 49%
    16:00 +13°C° 0 mm 3 m/s 690 mmHg 54%
    17:00 +12°C° 0 mm 3 m/s 690 mmHg 58%
    18:00 +13°C° 0 mm 2 m/s 690 mmHg 63%
    19:00 +10°C° 0.1 mm 2 m/s 690 mmHg 69%
    20:00 +9°C° 0.1 mm 2 m/s 691 mmHg 75%
    21:00 +9°C° 0.1 mm 1 m/s 691 mmHg 81%
    22:00 +9°C° 0 mm 1 m/s 691 mmHg 84%
    23:00 +8°C° 0 mm 1 m/s 691 mmHg 87%

    6 Iunie, Sâmbătă

    Timp Temperatura Precipitaţii Vânt Presiune Umiditate
    00:00 +7°C° 0 mm 1 m/s 691 mmHg 90%
    01:00 +7°C° 0 mm 1 m/s 691 mmHg 90%
    02:00 +7°C° 0 mm 1 m/s 692 mmHg 90%
    03:00 +5°C° 0 mm 2 m/s 692 mmHg 90%
    04:00 +7°C° 0 mm 2 m/s 692 mmHg 84%
    05:00 +8°C° 0 mm 2 m/s 692 mmHg 79%
    06:00 +9°C° 0 mm 2 m/s 692 mmHg 74%
    07:00 +10°C° 0 mm 2 m/s 692 mmHg 69%
    08:00 +12°C° 0 mm 2 m/s 692 mmHg 64%
    09:00 +14°C° 0 mm 2 m/s 692 mmHg 58%
    10:00 +14°C° 0 mm 2 m/s 692 mmHg 58%
    11:00 +14°C° 0 mm 2 m/s 692 mmHg 58%
    12:00 +15°C° 0 mm 2 m/s 692 mmHg 57%
    13:00 +14°C° 0.3 mm 2 m/s 691 mmHg 64%
    14:00 +13°C° 0.3 mm 2 m/s 691 mmHg 70%
    15:00 +12°C° 0.3 mm 2 m/s 691 mmHg 76%
    16:00 +10°C° 0.3 mm 2 m/s 691 mmHg 80%
    17:00 +11°C° 0.3 mm 1 m/s 690 mmHg 84%
    18:00 +10°C° 0.3 mm 1 m/s 690 mmHg 87%
    19:00 +10°C° 0 mm 1 m/s 690 mmHg 90%
    20:00 +10°C° 0 mm 1 m/s 690 mmHg 92%
    21:00 +9°C° 0 mm 1 m/s 690 mmHg 94%
    22:00 +9°C° 0.1 mm 1 m/s 690 mmHg 95%
    23:00 +9°C° 0.1 mm 1 m/s 690 mmHg 95%

    7 Iunie, Duminică

    Timp Temperatura Precipitaţii Vânt Presiune Umiditate
    00:00 +8°C° 0.1 mm 2 m/s 690 mmHg 96%
    01:00 +8°C° 0.6 mm 2 m/s 691 mmHg 96%
    02:00 +7°C° 0.6 mm 2 m/s 691 mmHg 96%
    03:00 +7°C° 0.6 mm 2 m/s 691 mmHg 96%
    04:00 +7°C° 0.6 mm 2 m/s 692 mmHg 96%
    05:00 +7°C° 0.6 mm 2 m/s 693 mmHg 96%
    06:00 +7°C° 0.6 mm 2 m/s 693 mmHg 96%
    07:00 +8°C° 0.6 mm 2 m/s 694 mmHg 95%
    08:00 +8°C° 0.6 mm 2 m/s 695 mmHg 95%
    09:00 +8°C° 0.6 mm 2 m/s 696 mmHg 95%
    10:00 +8°C° 0.8 mm 2 m/s 697 mmHg 95%
    11:00 +8°C° 0.8 mm 2 m/s 698 mmHg 95%
    12:00 +8°C° 0.8 mm 2 m/s 698 mmHg 95%
    13:00 +9°C° 0.4 mm 1 m/s 699 mmHg 94%
    14:00 +9°C° 0.4 mm 1 m/s 700 mmHg 94%
    15:00 +9°C° 0.4 mm 1 m/s 701 mmHg 93%
    16:00 +9°C° 0.1 mm 1 m/s 701 mmHg 94%
    17:00 +9°C° 0.1 mm 1 m/s 702 mmHg 94%
    18:00 +9°C° 0.1 mm 1 m/s 702 mmHg 94%
    19:00 +9°C° 0 mm 1 m/s 703 mmHg 94%
    20:00 +8°C° 0 mm 1 m/s 703 mmHg 94%
    21:00 +8°C° 0 mm 1 m/s 704 mmHg 94%
    22:00 +8°C° 0 mm 1 m/s 704 mmHg 94%
    23:00 +7°C° 0 mm 1 m/s 704 mmHg 94%

    8 Iunie, Luni

    Timp Temperatura Precipitaţii Vânt Presiune Umiditate
    00:00 +7°C° 0 mm 1 m/s 704 mmHg 93%
    01:00 +7°C° 0 mm 1 m/s 704 mmHg 93%
    02:00 +7°C° 0 mm 1 m/s 704 mmHg 92%
    03:00 +7°C° 0 mm 1 m/s 705 mmHg 92%
    04:00 +8°C° 0 mm 1 m/s 705 mmHg 90%
    05:00 +9°C° 0 mm 1 m/s 705 mmHg 87%
    06:00 +10°C° 0 mm 1 m/s 706 mmHg 85%
    07:00 +11°C° 0 mm 1 m/s 706 mmHg 81%
    08:00 +12°C° 0 mm 1 m/s 706 mmHg 77%
    09:00 +13°C° 0 mm 1 m/s 707 mmHg 73%
    10:00 +13°C° 0.2 mm 2 m/s 707 mmHg 71%
    11:00 +14°C° 0.2 mm 2 m/s 707 mmHg 69%
    12:00 +14°C° 0.2 mm 2 m/s 707 mmHg 68%
    13:00 +14°C° 0.3 mm 2 m/s 707 mmHg 67%
    14:00 +14°C° 0.3 mm 2 m/s 707 mmHg 66%
    15:00 +14°C° 0.3 mm 2 m/s 707 mmHg 65%
    16:00 +14°C° 0.1 mm 2 m/s 707 mmHg 66%
    17:00 +14°C° 0.1 mm 2 m/s 707 mmHg 67%
    18:00 +13°C° 0.1 mm 1 m/s 707 mmHg 68%
    19:00 +12°C° 0 mm 1 m/s 707 mmHg 75%
    20:00 +10°C° 0 mm 1 m/s 707 mmHg 81%
    21:00 +8°C° 0 mm 0 m/s 707 mmHg 88%
    22:00 +7°C° 0 mm 0 m/s 707 mmHg 89%
    23:00 +7°C° 0 mm 0 m/s 707 mmHg 89%
    Arată mai mult